Location: Martz Observatory
(42.0083°N, 79.0667°W)
Time: 20:39:26
(UTC-04:00)

Meteor 1-23 Rocket - Visible Passes

Search period start: 19 April 2014 00:00
Search period end: 29 April 2014 00:00
Orbit: 840 x 887 km, 81.3° (Epoch: 19 April)

Date Brightness Start Highest point End Pass type
(mag) Time Alt. Az. Time Alt. Az. Time Alt. Az.
19 Apr 6.2 00:40:15 20° NE 00:40:15 20° NE 00:42:21 10° NNE visible
19 Apr 5.7 02:22:31 29° NNW 02:22:31 29° NNW 02:25:50 10° N visible
20 Apr 6.2 00:31:59 20° NE 00:31:59 20° NE 00:34:08 10° NNE visible
20 Apr 5.7 02:14:15 30° NW 02:14:15 30° NW 02:17:39 10° N visible
21 Apr 6.2 00:23:43 20° NE 00:23:43 20° NE 00:25:55 10° NNE visible
21 Apr 5.7 02:05:59 30° NW 02:05:59 30° NW 02:09:27 10° N visible
22 Apr 6.1 00:15:26 21° NE 00:15:26 21° NE 00:17:43 10° NNE visible
22 Apr 5.7 01:57:42 31° NW 01:57:42 31° NW 02:01:16 10° N visible
23 Apr 6.1 00:07:08 21° NE 00:07:08 21° NE 00:09:30 10° NNE visible
23 Apr 5.6 01:49:24 32° NW 01:49:24 32° NW 01:53:04 10° N visible
23 Apr 6.0 23:58:49 21° NE 23:58:49 21° NE 00:01:18 10° NNE visible
24 Apr 5.6 01:41:05 33° NW 01:41:05 33° NW 01:44:52 10° N visible
24 Apr 6.0 23:50:30 22° NE 23:50:30 22° NE 23:53:05 10° NNE visible
25 Apr 5.5 01:32:46 34° NW 01:32:46 34° NW 01:36:41 10° N visible
25 Apr 5.9 23:42:10 22° ENE 23:42:10 22° ENE 23:44:53 10° NNE visible
26 Apr 5.5 01:24:25 35° NW 01:24:25 35° NW 01:28:29 10° N visible
26 Apr 5.9 23:33:48 23° ENE 23:33:48 23° ENE 23:36:40 10° NNE visible
27 Apr 5.4 01:16:04 36° NW 01:16:04 36° NW 01:20:18 10° N visible
27 Apr 5.8 23:25:26 23° ENE 23:25:26 23° ENE 23:28:28 10° NNE visible
28 Apr 5.4 01:07:41 38° NW 01:07:41 38° NW 01:12:06 10° N visible
28 Apr 5.7 23:17:03 24° ENE 23:17:03 24° ENE 23:20:15 10° NNE visible
